Regional Weather Roundup
Issued by NWS Columbia, SC

Home | Current Version | Previous Version | Text Only | Print | Product List | Glossary On
Versions: 1 2 3 4 5 6 7 8 9 10 11 12 13 14 15 16 17 18 19 20 21 22 23 24 25 26 27 28 29 30 31 32 33 34 35 36 37 38 39 40 41 42 43 44 45 46 47 48 49 50
468
ASUS42 KCAE 051110
RWRCAE
REGIONAL WEATHER ROUNDUP
NATIONAL WEATHER SERVICE COLUMBIA SC
600 AM EST MON DEC 05 2016

NOTE: "FAIR" INDICATES FEW OR NO CLOUDS BELOW 12,000 FEET WITH NO
SIGNIFICANT WEATHER AND/OR OBSTRUCTIONS TO VISIBILITY.

NOT ALL STATIONS ARE QUALITY CONTROLLED BY THE NATIONAL
WEATHER SERVICE. USE DATA WITH CAUTION...ESPECIALLY
DEWPOINT OBSERVATIONS.

SCZ001>056-GAZ040-063>065-077-051200-
...UPSTATE SOUTH CAROLINA...

CITY           SKY/WX    TMP DP  RH WIND       PRES   REMARKS
ANDERSON       CLOUDY    44  42  93 NW7       30.01R
LIBERTY        CLOUDY    43  42  98 CALM      29.97S
SPARTANBURG    CLOUDY    43  41  93 CALM      29.97F
CLEMSON        CLOUDY    45  42  89 S5        30.00R
GREENVILLE     CLOUDY    45  42  89 CALM      29.98S
GREENWOOD      CLOUDY    43  41  93 CALM      30.00F
GREER          CLOUDY    43  42  97 SE3       29.96F
ROCK HILL      CLOUDY    43  41  93 CALM      29.99F
CHESTER        CLOUDY    43  43 100 NE3       29.98F
LAURENS          N/A     41  41 100 CALM      29.97F


...CENTRAL SOUTH CAROLINA...

CITY           SKY/WX    TMP DP  RH WIND       PRES   REMARKS
COLUMBIA APT   LGT RAIN  46  43  89 E5        29.98F
COLUMBIA OWENS CLOUDY    46  42  86 SE5       29.99F
MCENTIRE ANGB  CLOUDY    45  43  95 N7        30.00S
ORANGEBURG     LGT RAIN  46  45  96 N10G20    30.02R
SUMTER SHAW    CLOUDY    45  43  93 N8        29.99R
NEWBERRY       CLOUDY    43  43 100 SE3       30.00F
AIKEN          CLOUDY    43  41  93 NE5       30.01F
LANCASTER      CLOUDY    43  43 100 NE3       29.99F
WINNSBORO      CLOUDY    43  43 100 CALM      29.99R


...EASTERN AND COASTAL SOUTH CAROLINA...

CITY           SKY/WX    TMP DP  RH WIND       PRES   REMARKS
MYRTLE BEACH   RAIN      54  48  82 NW9       29.97F
N MYRTLE BCH   LGT RAIN  53  53 100 VRB6      29.95S
CONWAY         LGT RAIN  46  46 100 CALM      29.97S
MARION         LGT RAIN  45  45 100 CALM      29.98F
HARTSVILLE     CLOUDY    43  41  93 CALM      29.98F
FLORENCE       CLOUDY    45  44  97 N8        30.00R
DARLINGTON     LGT RAIN  44  43  96 N5        30.00S
CHARLESTON APT CLOUDY    57  55  93 N5        29.95F
WALTERBORO     RAIN      52 N/A N/A CALM      29.97F
BEAUFORT       LGT RAIN  58  57  97 CALM      29.96F FOG


...EASTERN GEORGIA...

CITY           SKY/WX    TMP DP  RH WIND       PRES   REMARKS
AUGUSTA BUSH F CLOUDY    48  44  86 N8        29.98F
AUGUSTA DANIEL CLOUDY    46  42  86 N7        29.98F
THOMSON        CLOUDY    46  46 100 CALM      30.04S
WASHINGTON     CLOUDY    45  45 100 CALM      29.99F
CLAXTON        LGT RAIN N/A N/A N/A CALM      29.92F
SYLVANIA       CLOUDY   N/A N/A N/A CALM      29.97R
STATESBORO     CLOUDY    53  53 100 N7        29.95S
SAVANNAH       LGT RAIN  63  60  90 CALM      29.97F


...SOUTHERN NORTH CAROLINA...

CITY           SKY/WX    TMP DP  RH WIND       PRES   REMARKS
CHARLOTTE      CLOUDY    43  41  93 CALM      29.99F
MONROE         CLOUDY    43  40  89 CALM      29.97F
WADESBORO      CLOUDY    43  41  93 CALM      30.00R
RUTHERFORDTON  CLOUDY    41  41 100 CALM      29.98F FOG
ASHEVILLE      LGT RAIN  43  40  89 N13       29.99R

$$




USA.gov is the U.S. government's official web portal to all federal, state and local government web resources and services.